Date String (YYYY-MM-DD hh:mm:ss) UTC,Instrument flags,Ambient pressure (hPa),Sample flow (lpm),Bypass flow (lpm),Sample temperature (°C),Ambient temperature (°C),ASC tube jacket temperature (°C),LED temperature (°C),Box temperature (°C),Sample RH (%),Span deviation,Mass concentration (μg/m³),Mass concentration (μg/m³),Mass concentration (μg/m³)
DateTimeUTC,F1_M11,P_M11,Q1_M11,Q2_M11,T1_M11,T2_M11,T3_M11,T4_M11,T5_M11,U1_M11,ZSPAN_M11,X0_M11,X2_M11,X1_M11
2023-01-04 23:00:00,,0823.7,5.00,0.00,22.0,20.4,00.0,30.9,23.5,07.2,0000.0,0000.84,0000.57,0000.50
2023-01-04 23:01:00,,0823.7,5.00,0.00,21.9,20.4,00.0,30.9,23.5,07.2,0000.0,0000.77,0000.55,0000.50
2023-01-04 23:02:00,,0823.7,5.00,0.00,21.9,20.5,00.0,30.9,23.5,07.1,0000.0,0000.76,0000.56,0000.49
2023-01-04 23:03:00,,0823.7,5.00,0.00,21.9,20.5,00.0,30.9,23.5,07.3,0000.0,0000.74,0000.55,0000.48
2023-01-04 23:04:00,,0823.7,4.99,0.00,21.9,20.5,00.0,30.9,23.5,07.2,0000.0,0000.73,0000.54,0000.47
2023-01-04 23:05:00,,0823.6,4.99,0.00,21.9,20.4,00.0,30.8,23.4,07.3,0000.0,0000.71,0000.53,0000.46
2023-01-04 23:06:00,,0823.7,5.01,0.00,21.8,20.3,00.0,30.8,23.3,07.3,0000.0,0000.70,0000.52,0000.45
2023-01-04 23:07:00,,0823.7,5.01,0.00,21.8,20.5,00.0,30.8,23.3,07.3,0000.0,0000.86,0000.51,0000.44
2023-01-04 23:08:00,,0823.7,5.00,0.00,21.9,21.4,00.0,30.7,23.6,07.3,0000.0,0001.67,0000.51,0000.44
2023-01-04 23:09:00,,0823.7,5.00,0.00,22.0,22.3,00.0,30.7,23.9,07.3,0000.0,0001.69,0000.53,0000.44
2023-01-04 23:10:00,,0823.7,4.99,0.00,22.1,22.4,00.0,30.8,24.0,07.1,0000.0,0001.70,0000.53,0000.44
2023-01-04 23:11:00,,0823.7,5.00,0.00,22.1,21.7,00.0,30.8,23.9,07.2,0000.0,0001.73,0000.54,0000.44
2023-01-04 23:12:00,,0823.7,5.00,0.00,22.0,21.3,00.0,30.9,23.8,07.1,0000.0,0001.72,0000.52,0000.42
2023-01-04 23:13:00,,0823.7,4.99,0.00,22.0,21.1,00.0,30.9,23.7,07.0,0000.0,0001.76,0000.53,0000.42
2023-01-04 23:14:00,,0823.7,5.00,0.00,22.0,21.0,00.0,30.9,23.7,07.1,0000.0,0001.78,0000.53,0000.42
2023-01-04 23:15:00,,0823.7,5.00,0.00,22.0,20.9,00.0,30.9,23.7,07.1,0000.0,0001.75,0000.51,0000.42
2023-01-04 23:16:00,,0823.7,5.00,0.00,22.0,20.8,00.0,30.9,23.6,07.1,0000.0,0001.75,0000.51,0000.42
2023-01-04 23:17:00,,0823.7,5.00,0.00,22.0,20.8,00.0,30.9,23.6,07.0,0000.0,0001.80,0000.53,0000.42
2023-01-04 23:18:00,,0823.7,5.00,0.00,22.0,20.8,00.0,30.9,23.6,07.0,0000.0,0001.82,0000.53,0000.42
2023-01-04 23:19:00,,0823.7,5.00,0.00,22.0,20.8,00.0,30.9,23.6,07.0,0000.0,0000.88,0000.52,0000.42
2023-01-04 23:20:00,,0823.7,5.00,0.00,22.0,20.7,00.0,30.9,23.7,07.1,0000.0,0000.76,0000.50,0000.41
2023-01-04 23:21:00,,0823.7,5.00,0.00,22.0,20.7,00.0,30.9,23.6,06.6,0000.0,0000.73,0000.48,0000.41
2023-01-04 23:22:00,,0823.6,5.00,0.00,22.0,20.6,00.0,30.9,23.7,06.7,0000.0,0000.68,0000.46,0000.40
2023-01-04 23:23:00,,0823.7,5.00,0.00,21.9,20.5,00.0,30.9,23.6,06.8,0000.0,0000.65,0000.45,0000.40
2023-01-04 23:24:00,,0823.7,5.00,0.00,21.9,20.4,00.0,30.8,23.5,06.7,0000.0,0000.64,0000.45,0000.40
2023-01-04 23:25:00,,0823.7,5.00,0.00,21.9,20.3,00.0,30.8,23.4,06.6,0000.0,0000.60,0000.43,0000.39
2023-01-04 23:26:00,,0823.7,4.99,0.00,21.8,20.2,00.0,30.8,23.3,06.7,0000.0,0000.60,0000.43,0000.39
2023-01-04 23:27:00,,0823.5,4.99,0.00,21.8,20.2,00.0,30.8,23.4,06.8,0000.0,0000.60,0000.43,0000.39
2023-01-04 23:28:00,,0823.3,4.99,0.00,21.8,20.2,00.0,30.8,23.3,07.0,0000.0,0001.15,0000.44,0000.39
2023-01-04 23:29:00,,0823.2,5.00,0.00,21.8,20.5,00.0,30.7,23.4,07.0,0000.0,0005.34,0000.51,0000.40
2023-01-04 23:30:00,,0823.1,5.02,0.00,21.9,21.5,00.0,30.7,23.7,07.3,0000.0,0007.53,0000.57,0000.42
2023-01-04 23:31:00,,0823.3,4.97,0.00,22.0,22.5,00.0,30.7,24.0,07.1,0000.0,0007.63,0000.65,0000.43
2023-01-04 23:32:00,,0823.4,5.02,0.00,22.1,22.6,00.0,30.7,24.2,06.9,0000.0,0007.65,0000.66,0000.44
2023-01-04 23:33:00,,0823.2,5.00,0.00,22.1,22.0,00.0,30.8,24.0,07.4,0000.0,0007.70,0000.69,0000.44
2023-01-04 23:34:00,,0823.2,4.98,0.00,22.1,21.6,00.0,30.8,23.9,07.3,0000.0,0007.78,0000.76,0000.46
2023-01-04 23:35:00,,0823.3,5.04,0.00,22.1,21.3,00.0,30.9,23.8,07.7,0000.0,0007.86,0000.83,0000.48
2023-01-04 23:36:00,,0823.4,5.05,0.00,22.1,21.0,00.0,30.9,23.7,07.7,0000.0,0007.91,0000.87,0000.50
2023-01-04 23:37:00,,0823.4,4.98,0.00,22.0,20.8,00.0,30.9,23.6,07.9,0000.0,0008.02,0000.97,0000.56
2023-01-04 23:38:00,,0823.3,4.97,0.00,22.0,20.6,00.0,30.9,23.6,07.5,0000.0,0008.05,0001.01,0000.58
2023-01-04 23:39:00,,0823.4,5.02,0.00,22.0,20.5,00.0,30.8,23.5,07.0,0000.0,0007.77,0001.02,0000.58
2023-01-04 23:40:00,,0823.4,5.00,0.00,22.0,20.4,00.0,30.8,23.5,06.9,0000.0,0003.59,0000.94,0000.57
2023-01-04 23:41:00,,0823.4,4.97,0.00,21.9,20.3,00.0,30.8,23.4,07.2,0000.0,0001.57,0000.87,0000.55
2023-01-04 23:42:00,,0823.3,4.97,0.00,21.9,20.2,00.0,30.8,23.4,07.3,0000.0,0001.38,0000.79,0000.53
2023-01-04 23:43:00,,0823.4,5.02,0.00,21.8,20.1,00.0,30.8,23.3,07.2,0000.0,0001.36,0000.79,0000.53
2023-01-04 23:44:00,,0823.4,5.00,0.00,21.8,20.2,00.0,30.7,23.3,07.5,0000.0,0001.29,0000.77,0000.54
2023-01-04 23:45:00,,0823.4,5.00,0.00,21.9,21.0,00.0,30.7,23.6,07.5,0000.0,0001.20,0000.73,0000.53
2023-01-04 23:46:00,,0823.4,4.99,0.00,22.0,22.0,00.0,30.7,23.9,06.8,0000.0,0001.06,0000.67,0000.52
2023-01-04 23:47:00,,0823.4,5.00,0.00,22.1,22.6,00.0,30.8,24.1,06.9,0000.0,0000.98,0000.64,0000.51
2023-01-04 23:48:00,,0823.3,4.99,0.00,22.1,22.1,00.0,30.8,24.0,06.9,0000.0,0000.78,0000.54,0000.45
2023-01-04 23:49:00,,0823.6,4.99,0.00,22.1,21.6,00.0,30.9,23.9,06.7,0000.0,0000.73,0000.51,0000.42
2023-01-04 23:50:00,,0823.7,5.00,0.00,22.1,21.3,00.0,30.9,23.8,07.2,0000.0,0000.68,0000.48,0000.42
2023-01-04 23:51:00,,0823.7,4.99,0.00,22.1,21.1,00.0,30.9,23.7,06.9,0000.0,0000.67,0000.48,0000.42
2023-01-04 23:52:00,,0823.7,5.01,0.00,22.0,20.9,00.0,30.9,23.7,06.7,0000.0,0000.67,0000.48,0000.43
2023-01-04 23:53:00,,0823.7,5.00,0.00,22.0,20.8,00.0,30.9,23.6,07.1,0000.0,0000.71,0000.50,0000.43
2023-01-04 23:54:00,,0823.7,5.00,0.00,22.0,20.7,00.0,30.9,23.6,06.8,0000.0,0000.76,0000.51,0000.43
2023-01-04 23:55:00,,0823.7,5.00,0.00,22.0,20.6,00.0,30.9,23.6,06.8,0000.0,0000.74,0000.50,0000.42
2023-01-04 23:56:00,,0823.7,5.01,0.00,21.9,20.5,00.0,30.9,23.5,06.8,0000.0,0000.69,0000.47,0000.41
2023-01-04 23:57:00,,0823.7,5.01,0.00,21.9,20.5,00.0,30.8,23.5,06.9,0000.0,0000.74,0000.48,0000.42
2023-01-04 23:58:00,,0823.8,5.00,0.00,21.9,20.5,00.0,30.8,23.5,07.0,0000.0,0000.89,0000.49,0000.43
2023-01-04 23:59:00,,0823.8,5.00,0.00,21.9,20.5,00.0,30.8,23.5,07.2,0000.0,0000.93,0000.52,0000.45
